TimeCDT,TemperatureF,Dew PointF,Humidity,Sea Level PressureIn,VisibilityMPH,Wind Direction,Wind SpeedMPH,Gust SpeedMPH,PrecipitationIn,Events,Conditions,WindDirDegrees,DateUTC
12:16 AM,39.2,19.4,45,30.14,10.0,South,6.9,-,N/A,,Clear,170,2012-10-13 05:16:00
12:35 AM,37.4,21.2,52,30.13,10.0,South,6.9,-,N/A,,Clear,170,2012-10-13 05:35:00
12:55 AM,37.4,21.2,52,30.13,10.0,South,5.8,-,N/A,,Clear,170,2012-10-13 05:55:00
1:15 AM,37.4,19.4,48,30.11,10.0,SSE,10.4,-,N/A,,Clear,150,2012-10-13 06:15:00
1:55 AM,37.4,21.2,52,30.09,10.0,South,11.5,16.1,N/A,,Overcast,170,2012-10-13 06:55:00
2:15 AM,37.4,21.2,52,30.08,10.0,South,8.1,-,N/A,,Overcast,170,2012-10-13 07:15:00
2:35 AM,39.2,23.0,52,30.07,10.0,South,8.1,-,N/A,,Overcast,170,2012-10-13 07:35:00
2:55 AM,41.0,26.6,57,30.06,10.0,South,6.9,-,N/A,,Overcast,170,2012-10-13 07:55:00
3:35 AM,41.0,30.2,65,30.04,10.0,South,15.0,18.4,N/A,,Overcast,190,2012-10-13 08:35:00
3:55 AM,39.2,32.0,75,30.03,10.0,South,15.0,-,N/A,Rain,Light Rain,190,2012-10-13 08:55:00
4:15 AM,37.4,33.8,87,30.03,5.0,South,16.1,25.3,N/A,,Drizzle,180,2012-10-13 09:15:00
4:35 AM,37.4,35.6,93,30.02,7.0,South,13.8,17.3,N/A,,Light Drizzle,170,2012-10-13 09:35:00
5:15 AM,37.4,35.6,93,29.98,7.0,South,12.7,-,N/A,,Overcast,170,2012-10-13 10:15:00
5:35 AM,37.4,35.6,93,29.97,7.0,SSE,9.2,16.1,N/A,Rain,Light Rain,160,2012-10-13 10:35:00
5:55 AM,37.4,35.6,93,29.96,5.0,SSE,10.4,17.3,N/A,Rain,Light Rain,160,2012-10-13 10:55:00
6:15 AM,37.4,35.6,93,29.96,5.0,South,11.5,17.3,N/A,Rain,Rain,170,2012-10-13 11:15:00
6:35 AM,37.4,35.6,93,29.94,3.0,South,11.5,16.1,0.01,,Drizzle,170,2012-10-13 11:35:00
6:55 AM,37.4,35.6,93,29.94,4.0,South,12.7,18.4,0.01,,Drizzle,170,2012-10-13 11:55:00
7:15 AM,37.4,35.6,93,29.92,3.0,South,6.9,-,N/A,Rain,Light Rain,170,2012-10-13 12:15:00
7:35 AM,37.4,35.6,93,29.91,3.0,SSE,9.2,-,N/A,,Light Drizzle,160,2012-10-13 12:35:00
7:55 AM,37.4,35.6,93,29.90,1.8,SSE,9.2,-,N/A,,Light Drizzle,160,2012-10-13 12:55:00
8:15 AM,39.2,37.4,93,29.89,1.8,South,10.4,-,N/A,Rain,Light Rain,170,2012-10-13 13:15:00
8:35 AM,41.0,37.4,87,29.88,1.8,SSE,9.2,-,N/A,,Overcast,160,2012-10-13 13:35:00
8:55 AM,41.0,39.2,93,29.87,1.8,SSE,9.2,-,N/A,,Overcast,160,2012-10-13 13:55:00
9:15 AM,41.0,39.2,93,29.87,2.0,South,6.9,17.3,N/A,,Overcast,170,2012-10-13 14:15:00
9:35 AM,41.0,39.2,93,29.86,2.0,South,8.1,-,N/A,,Overcast,180,2012-10-13 14:35:00
9:55 AM,41.0,39.2,93,29.86,2.5,South,10.4,-,N/A,,Overcast,170,2012-10-13 14:55:00
10:15 AM,41.0,39.2,93,29.85,2.0,South,9.2,-,N/A,,Overcast,170,2012-10-13 15:15:00
10:35 AM,41.0,39.2,93,29.85,2.5,South,8.1,17.3,N/A,,Overcast,180,2012-10-13 15:35:00
10:55 AM,41.0,39.2,93,29.86,2.0,South,8.1,-,N/A,,Overcast,180,2012-10-13 15:55:00
11:15 AM,41.0,39.2,93,29.85,1.8,South,5.8,-,N/A,,Overcast,180,2012-10-13 16:15:00
11:35 AM,41.0,39.2,93,29.84,2.0,South,8.1,-,N/A,,Overcast,190,2012-10-13 16:35:00
11:55 AM,41.0,39.2,93,29.83,2.0,South,4.6,-,N/A,,Overcast,190,2012-10-13 16:55:00
12:15 PM,42.8,41.0,93,29.81,1.5,South,6.9,-,N/A,,Overcast,180,2012-10-13 17:15:00
12:35 PM,42.8,41.0,93,29.79,1.8,South,5.8,-,N/A,,Overcast,170,2012-10-13 17:35:00
12:55 PM,42.8,41.0,93,29.78,3.0,South,5.8,-,N/A,,Overcast,170,2012-10-13 17:55:00
1:15 PM,42.8,41.0,93,29.76,5.0,South,4.6,-,N/A,,Overcast,190,2012-10-13 18:15:00
1:55 PM,42.8,41.0,93,29.76,7.0,SSW,5.8,-,N/A,,Overcast,200,2012-10-13 18:55:00
2:15 PM,42.8,41.0,93,29.76,2.5,SSW,5.8,-,N/A,,Overcast,210,2012-10-13 19:15:00
2:35 PM,42.8,41.0,93,29.76,1.0,SSW,3.5,-,N/A,,Overcast,200,2012-10-13 19:35:00
2:55 PM,42.8,42.8,100,29.75,0.5,SSW,3.5,-,N/A,Fog,Fog,200,2012-10-13 19:55:00
3:15 PM,42.8,42.8,100,29.74,1.0,Calm,Calm,-,N/A,,Drizzle,0,2012-10-13 20:15:00
3:35 PM,42.8,42.8,100,29.73,2.5,Calm,Calm,-,N/A,,Light Drizzle,0,2012-10-13 20:35:00
3:55 PM,42.8,42.8,100,29.72,5.0,Calm,Calm,-,N/A,,Overcast,0,2012-10-13 20:55:00
4:15 PM,44.6,42.8,93,29.72,10.0,Calm,Calm,-,N/A,,Overcast,0,2012-10-13 21:15:00
4:55 PM,44.6,42.8,93,29.73,4.0,Calm,Calm,-,N/A,,Drizzle,0,2012-10-13 21:55:00
5:15 PM,44.6,42.8,93,29.73,5.0,Calm,Calm,-,N/A,,Light Drizzle,0,2012-10-13 22:15:00
5:35 PM,44.6,42.8,93,29.74,2.0,Calm,Calm,-,N/A,,Drizzle,0,2012-10-13 22:35:00
5:55 PM,44.6,42.8,93,29.73,2.0,Calm,Calm,-,N/A,,Light Drizzle,0,2012-10-13 22:55:00
6:15 PM,44.6,42.8,93,29.73,1.8,Calm,Calm,-,N/A,,Light Drizzle,0,2012-10-13 23:15:00
6:35 PM,44.6,42.8,93,29.74,3.0,Calm,Calm,-,N/A,,Mostly Cloudy,0,2012-10-13 23:35:00
7:55 PM,42.8,42.8,100,29.76,3.0,Calm,Calm,-,N/A,,Overcast,0,2012-10-14 00:55:00
8:15 PM,42.8,42.8,100,29.76,4.0,Calm,Calm,-,N/A,,Overcast,0,2012-10-14 01:15:00
8:35 PM,42.8,42.8,100,29.77,2.0,Calm,Calm,-,N/A,,Overcast,0,2012-10-14 01:35:00
9:15 PM,42.8,42.8,100,29.77,2.5,North,5.8,-,N/A,,Overcast,360,2012-10-14 02:15:00
9:35 PM,42.8,42.8,100,29.77,4.0,Calm,Calm,-,N/A,,Overcast,0,2012-10-14 02:35:00
9:55 PM,42.8,42.8,100,29.77,4.0,Calm,Calm,-,N/A,,Overcast,0,2012-10-14 02:55:00
10:15 PM,42.8,42.8,100,29.77,3.0,Calm,Calm,-,N/A,,Overcast,0,2012-10-14 03:15:00
10:35 PM,42.8,42.8,100,29.78,5.0,Calm,Calm,-,N/A,,Overcast,0,2012-10-14 03:35:00
10:55 PM,42.8,42.8,100,29.76,5.0,North,3.5,-,N/A,,Overcast,10,2012-10-14 03:55:00
11:15 PM,42.8,42.8,100,29.78,7.0,North,4.6,-,N/A,,Overcast,360,2012-10-14 04:15:00
11:35 PM,42.8,42.8,100,29.79,10.0,Calm,Calm,-,N/A,,Overcast,0,2012-10-14 04:35:00